Tracking 35274 objects as of 11-Sep-2026
HD Live streaming from Space Station
objects crossing your sky now

TNS 0-2


TNS 0-2 is no longer on orbit


NORAD ID: 42914
Int'l Code: 1998-067ND
Launch date: November 20, 1998
Source: United States (US)
Launch site: TYURATAM MISSILE AND SPACE COMPLEX (TTMTR)
Decay date: 2019-10-15
Your satellite tracking list
Your tracking list is empty




NASA's NSSDC Master Catalog

Two Line Element Set (TLE):
1 42914U 98067ND  19287.60980883  .08316753  12540-4  43957-3 0  9999
2 42914  51.6151  25.5489 0006056 318.3846  41.6720 16.42417067123839
Source of the keplerian elements: AFSPC